Time,TemperatureF,DewpointF,PressureIn,WindDirection,WindDirectionDegrees,WindSpeedMPH,WindSpeedGustMPH,Humidity,HourlyPrecipIn,Conditions,Clouds,dailyrainin,SoftwareType,DateUTC
2013-02-11 00:02:00,21.0,12.0,30.11,ESE,112,7.0,11.0,68,0.00,,,0.00,weatherlink.com 1.10,2013-02-11 07:02:00,
2013-02-11 00:17:00,21.1,12.0,30.11,ESE,117,9.0,15.0,67,0.00,,,0.00,weatherlink.com 1.10,2013-02-11 07:17:00,
2013-02-11 00:32:00,20.8,11.0,30.11,SE,126,11.0,16.0,67,0.00,,,0.00,weatherlink.com 1.10,2013-02-11 07:32:00,
2013-02-11 00:47:00,19.7,14.0,30.12,SE,136,11.0,16.0,77,0.00,,,0.00,weatherlink.com 1.10,2013-02-11 07:47:00,
2013-02-11 01:02:00,19.1,15.0,30.12,SE,133,3.0,7.0,82,0.00,,,0.00,weatherlink.com 1.10,2013-02-11 08:02:00,
2013-02-11 01:17:00,18.9,14.0,30.12,SE,133,3.0,6.0,82,0.00,,,0.00,weatherlink.com 1.10,2013-02-11 08:17:00,
2013-02-11 01:32:00,18.9,14.0,30.13,SE,133,1.0,4.0,81,0.00,,,0.00,weatherlink.com 1.10,2013-02-11 08:32:00,
2013-02-11 01:47:00,18.8,14.0,30.13,SE,133,2.0,4.0,80,0.00,,,0.00,weatherlink.com 1.10,2013-02-11 08:47:00,
2013-02-11 02:02:00,18.6,13.0,30.12,SE,133,2.0,4.0,80,0.00,,,0.00,weatherlink.com 1.10,2013-02-11 09:02:00,
2013-02-11 02:17:00,18.6,13.0,30.12,SE,133,4.0,4.0,79,0.00,,,0.00,weatherlink.com 1.10,2013-02-11 09:17:00,
2013-02-11 02:32:00,18.6,13.0,30.12,SE,133,1.0,3.0,79,0.00,,,0.00,weatherlink.com 1.10,2013-02-11 09:32:00,
2013-02-11 02:47:00,18.3,13.0,30.12,SE,133,0.0,2.0,79,0.00,,,0.00,weatherlink.com 1.10,2013-02-11 09:47:00,
2013-02-11 03:02:00,17.5,12.0,30.12,SE,133,0.0,0.0,79,0.00,,,0.00,weatherlink.com 1.10,2013-02-11 10:02:00,
2013-02-11 03:17:00,16.9,12.0,30.12,SE,133,3.0,4.0,80,0.00,,,0.00,weatherlink.com 1.10,2013-02-11 10:17:00,
2013-02-11 03:32:00,16.7,12.0,30.11,SE,133,2.0,3.0,82,0.00,,,0.00,weatherlink.com 1.10,2013-02-11 10:32:00,
2013-02-11 03:47:00,17.0,12.0,30.11,SE,133,0.0,0.0,82,0.00,,,0.00,weatherlink.com 1.10,2013-02-11 10:47:00,
2013-02-11 04:02:00,16.5,12.0,30.11,SE,133,3.0,4.0,83,0.00,,,0.00,weatherlink.com 1.10,2013-02-11 11:02:00,
2013-02-11 04:17:00,16.2,12.0,30.11,SE,133,4.0,4.0,83,0.00,,,0.00,weatherlink.com 1.10,2013-02-11 11:17:00,
2013-02-11 04:32:00,16.5,13.0,30.11,SE,133,4.0,4.0,85,0.00,,,0.00,weatherlink.com 1.10,2013-02-11 11:32:00,
2013-02-11 04:47:00,17.2,14.0,30.11,SE,133,2.0,5.0,86,0.00,,,0.00,weatherlink.com 1.10,2013-02-11 11:47:00,
2013-02-11 05:02:00,17.8,14.0,30.12,SE,133,2.0,5.0,86,0.00,,,0.00,weatherlink.com 1.10,2013-02-11 12:02:00,
2013-02-11 05:17:00,18.1,15.0,30.12,SE,133,3.0,4.0,86,0.00,,,0.00,weatherlink.com 1.10,2013-02-11 12:17:00,
2013-02-11 05:32:00,18.4,15.0,30.12,SE,133,3.0,4.0,86,0.00,,,0.00,weatherlink.com 1.10,2013-02-11 12:32:00,
2013-02-11 05:47:00,18.6,15.0,30.12,SE,133,3.0,4.0,86,0.00,,,0.00,weatherlink.com 1.10,2013-02-11 12:47:00,
2013-02-11 06:02:00,18.3,15.0,30.12,SE,133,2.0,4.0,86,0.00,,,0.00,weatherlink.com 1.10,2013-02-11 13:02:00,
2013-02-11 06:17:00,18.6,15.0,30.12,SE,133,4.0,5.0,85,0.00,,,0.00,weatherlink.com 1.10,2013-02-11 13:17:00,
2013-02-11 06:33:00,18.6,15.0,30.12,SE,133,2.0,4.0,84,0.00,,,0.00,weatherlink.com 1.10,2013-02-11 13:33:00,
2013-02-11 06:47:00,18.8,15.0,30.12,SE,133,3.0,4.0,84,0.00,,,0.00,weatherlink.com 1.10,2013-02-11 13:47:00,
2013-02-11 07:03:00,18.8,15.0,30.12,SE,133,4.0,5.0,84,0.00,,,0.00,weatherlink.com 1.10,2013-02-11 14:03:00,
2013-02-11 07:18:00,18.9,15.0,30.12,SE,133,4.0,5.0,84,0.00,,,0.00,weatherlink.com 1.10,2013-02-11 14:18:00,
2013-02-11 07:33:00,19.1,15.0,30.12,SE,133,3.0,5.0,82,0.00,,,0.00,weatherlink.com 1.10,2013-02-11 14:33:00,
2013-02-11 07:48:00,19.2,14.0,30.12,SE,133,3.0,4.0,81,0.00,,,0.00,weatherlink.com 1.10,2013-02-11 14:48:00,
2013-02-11 08:03:00,19.7,14.0,30.12,SE,133,3.0,4.0,79,0.00,,,0.00,weatherlink.com 1.10,2013-02-11 15:03:00,
2013-02-11 08:18:00,20.3,14.0,30.12,SE,133,3.0,4.0,78,0.00,,,0.00,weatherlink.com 1.10,2013-02-11 15:18:00,
2013-02-11 08:33:00,20.8,14.0,30.12,SE,133,3.0,6.0,75,0.00,,,0.00,weatherlink.com 1.10,2013-02-11 15:33:00,
2013-02-11 08:48:00,21.4,13.0,30.12,SE,133,1.0,5.0,71,0.00,,,0.00,weatherlink.com 1.10,2013-02-11 15:48:00,
2013-02-11 09:03:00,22.7,14.0,30.12,SE,133,3.0,5.0,68,0.00,,,0.00,weatherlink.com 1.10,2013-02-11 16:03:00,
2013-02-11 09:18:00,23.3,14.0,30.12,SE,132,2.0,5.0,67,0.00,,,0.00,weatherlink.com 1.10,2013-02-11 16:18:00,
2013-02-11 09:33:00,23.9,14.0,30.12,NW,318,4.0,7.0,65,0.00,,,0.00,weatherlink.com 1.10,2013-02-11 16:33:00,
2013-02-11 09:48:00,25.0,15.0,30.12,North,350,6.0,6.0,65,0.00,,,0.00,weatherlink.com 1.10,2013-02-11 16:48:00,
2013-02-11 10:03:00,25.6,14.0,30.11,North,355,4.0,8.0,62,0.00,,,0.00,weatherlink.com 1.10,2013-02-11 17:03:00,
2013-02-11 10:18:00,26.9,15.0,30.11,North,5,5.0,9.0,61,0.00,,,0.00,weatherlink.com 1.10,2013-02-11 17:18:00,
2013-02-11 10:33:00,28.4,16.0,30.11,North,355,6.0,9.0,59,0.00,,,0.00,weatherlink.com 1.10,2013-02-11 17:33:00,
2013-02-11 10:48:00,27.8,14.0,30.11,NW,311,4.0,10.0,57,0.00,,,0.00,weatherlink.com 1.10,2013-02-11 17:48:00,
2013-02-11 11:03:00,28.4,14.0,30.11,NW,313,8.0,11.0,54,0.00,,,0.00,weatherlink.com 1.10,2013-02-11 18:03:00,
2013-02-11 11:18:00,28.1,13.0,30.11,NNW,337,1.0,10.0,53,0.00,,,0.00,weatherlink.com 1.10,2013-02-11 18:18:00,
2013-02-11 11:33:00,27.6,12.0,30.11,NNE,30,3.0,7.0,52,0.00,,,0.00,weatherlink.com 1.10,2013-02-11 18:33:00,
2013-02-11 11:48:00,27.5,12.0,30.09,North,355,4.0,9.0,53,0.00,,,0.00,weatherlink.com 1.10,2013-02-11 18:48:00,
2013-02-11 12:18:00,28.1,13.0,30.08,North,5,6.0,9.0,53,0.00,,,0.00,weatherlink.com 1.10,2013-02-11 19:18:00,
2013-02-11 12:33:00,27.9,13.0,30.08,NNW,339,2.0,8.0,53,0.00,,,0.00,weatherlink.com 1.10,2013-02-11 19:33:00,
2013-02-11 12:48:00,28.8,13.0,30.07,NW,324,3.0,11.0,52,0.00,,,0.00,weatherlink.com 1.10,2013-02-11 19:48:00,
2013-02-11 13:03:00,28.8,13.0,30.07,NW,313,9.0,10.0,52,0.00,,,0.00,weatherlink.com 1.10,2013-02-11 20:03:00,
2013-02-11 13:18:00,29.3,13.0,30.06,NNW,332,6.0,8.0,50,0.00,,,0.00,weatherlink.com 1.10,2013-02-11 20:18:00,
2013-02-11 13:33:00,28.7,12.0,30.06,North,355,3.0,8.0,50,0.00,,,0.00,weatherlink.com 1.10,2013-02-11 20:33:00,
2013-02-11 13:48:00,29.0,12.0,30.06,NNW,338,5.0,8.0,50,0.00,,,0.00,weatherlink.com 1.10,2013-02-11 20:48:00,
2013-02-11 14:03:00,29.3,13.0,30.06,NNW,327,7.0,9.0,50,0.00,,,0.00,weatherlink.com 1.10,2013-02-11 21:03:00,
2013-02-11 14:18:00,28.8,13.0,30.05,NNW,345,3.0,11.0,51,0.00,,,0.00,weatherlink.com 1.10,2013-02-11 21:18:00,
2013-02-11 14:33:00,29.1,12.0,30.05,North,355,7.0,7.0,50,0.00,,,0.00,weatherlink.com 1.10,2013-02-11 21:33:00,
2013-02-11 14:48:00,29.3,12.0,30.05,NW,311,5.0,8.0,49,0.00,,,0.00,weatherlink.com 1.10,2013-02-11 21:48:00,
2013-02-11 15:03:00,28.8,13.0,30.05,NNW,344,3.0,11.0,51,0.00,,,0.00,weatherlink.com 1.10,2013-02-11 22:03:00,
2013-02-11 15:18:00,29.1,12.0,30.05,NNW,333,4.0,8.0,50,0.00,,,0.00,weatherlink.com 1.10,2013-02-11 22:18:00,
2013-02-11 15:34:00,28.8,12.0,30.06,NNW,333,3.0,10.0,50,0.00,,,0.00,weatherlink.com 1.10,2013-02-11 22:34:00,
2013-02-11 15:49:00,29.1,12.0,30.06,NNW,332,4.0,8.0,50,0.00,,,0.00,weatherlink.com 1.10,2013-02-11 22:49:00,
2013-02-11 16:04:00,29.4,12.0,30.06,WNW,300,2.0,7.0,49,0.00,,,0.00,weatherlink.com 1.10,2013-02-11 23:04:00,
2013-02-11 16:19:00,29.4,12.0,30.07,NNW,336,4.0,7.0,49,0.00,,,0.00,weatherlink.com 1.10,2013-02-11 23:19:00,
2013-02-11 16:34:00,29.4,12.0,30.07,NW,325,2.0,6.0,49,0.00,,,0.00,weatherlink.com 1.10,2013-02-11 23:34:00,
2013-02-11 16:49:00,28.8,12.0,30.07,NW,325,2.0,6.0,49,0.00,,,0.00,weatherlink.com 1.10,2013-02-11 23:49:00,
2013-02-11 17:04:00,28.2,12.0,30.07,NW,325,2.0,4.0,51,0.00,,,0.00,weatherlink.com 1.10,2013-02-12 00:04:00,
2013-02-11 17:19:00,27.6,12.0,30.08,NW,325,3.0,4.0,52,0.00,,,0.00,weatherlink.com 1.10,2013-02-12 00:19:00,
2013-02-11 17:34:00,26.9,12.0,30.08,NW,325,1.0,2.0,53,0.00,,,0.00,weatherlink.com 1.10,2013-02-12 00:34:00,
2013-02-11 17:49:00,26.4,12.0,30.09,NW,325,2.0,4.0,54,0.00,,,0.00,weatherlink.com 1.10,2013-02-12 00:49:00,
2013-02-11 18:04:00,26.3,12.0,30.09,NW,325,2.0,5.0,54,0.00,,,0.00,weatherlink.com 1.10,2013-02-12 01:04:00,
2013-02-11 18:19:00,26.0,12.0,30.10,NW,325,3.0,5.0,55,0.00,,,0.00,weatherlink.com 1.10,2013-02-12 01:19:00,
2013-02-11 18:34:00,25.8,12.0,30.11,NW,325,4.0,4.0,55,0.00,,,0.00,weatherlink.com 1.10,2013-02-12 01:34:00,
2013-02-11 18:49:00,26.0,12.0,30.11,NW,325,4.0,4.0,55,0.00,,,0.00,weatherlink.com 1.10,2013-02-12 01:49:00,
2013-02-11 19:04:00,25.7,12.0,30.12,NW,325,3.0,4.0,56,0.00,,,0.00,weatherlink.com 1.10,2013-02-12 02:04:00,
2013-02-11 19:19:00,25.6,12.0,30.12,NW,325,2.0,4.0,57,0.00,,,0.00,weatherlink.com 1.10,2013-02-12 02:19:00,
2013-02-11 19:34:00,25.8,13.0,30.12,NW,325,2.0,4.0,58,0.00,,,0.00,weatherlink.com 1.10,2013-02-12 02:34:00,
2013-02-11 19:49:00,24.4,13.0,30.12,SW,222,0.0,6.0,61,0.00,,,0.00,weatherlink.com 1.10,2013-02-12 02:49:00,
2013-02-11 20:04:00,24.4,13.0,30.12,SW,222,1.0,3.0,61,0.00,,,0.00,weatherlink.com 1.10,2013-02-12 03:04:00,
2013-02-11 20:19:00,24.1,13.0,30.12,SW,222,3.0,4.0,62,0.00,,,0.00,weatherlink.com 1.10,2013-02-12 03:19:00,
2013-02-11 20:34:00,24.1,13.0,30.12,SW,222,5.0,6.0,62,0.00,,,0.00,weatherlink.com 1.10,2013-02-12 03:34:00,
2013-02-11 20:49:00,23.2,13.0,30.13,SW,222,2.0,5.0,65,0.00,,,0.00,weatherlink.com 1.10,2013-02-12 03:49:00,
2013-02-11 21:04:00,21.8,13.0,30.13,SW,222,1.0,5.0,69,0.00,,,0.00,weatherlink.com 1.10,2013-02-12 04:04:00,
2013-02-11 21:19:00,21.4,13.0,30.13,SW,222,2.0,4.0,71,0.00,,,0.00,weatherlink.com 1.10,2013-02-12 04:19:00,
2013-02-11 21:34:00,21.4,13.0,30.13,SW,222,3.0,5.0,71,0.00,,,0.00,weatherlink.com 1.10,2013-02-12 04:34:00,
2013-02-11 21:49:00,21.1,13.0,30.14,SW,222,3.0,7.0,71,0.00,,,0.00,weatherlink.com 1.10,2013-02-12 04:49:00,
2013-02-11 22:04:00,20.5,13.0,30.13,SW,222,5.0,5.0,72,0.00,,,0.00,weatherlink.com 1.10,2013-02-12 05:04:00,
2013-02-11 22:19:00,19.7,12.0,30.14,SW,222,1.0,3.0,72,0.00,,,0.00,weatherlink.com 1.10,2013-02-12 05:19:00,
2013-02-11 22:34:00,19.4,12.0,30.14,SW,222,3.0,3.0,73,0.00,,,0.00,weatherlink.com 1.10,2013-02-12 05:34:00,
2013-02-11 22:49:00,18.3,11.0,30.14,SW,222,3.0,4.0,74,0.00,,,0.00,weatherlink.com 1.10,2013-02-12 05:49:00,
2013-02-11 23:04:00,17.5,12.0,30.14,SW,222,0.0,5.0,78,0.00,,,0.00,weatherlink.com 1.10,2013-02-12 06:04:00,
2013-02-11 23:19:00,17.0,12.0,30.14,SW,222,3.0,4.0,81,0.00,,,0.00,weatherlink.com 1.10,2013-02-12 06:19:00,
2013-02-11 23:34:00,17.5,12.0,30.14,SW,222,2.0,5.0,78,0.00,,,0.00,weatherlink.com 1.10,2013-02-12 06:34:00,
2013-02-11 23:49:00,17.3,11.0,30.14,SW,222,4.0,6.0,77,0.00,,,0.00,weatherlink.com 1.10,2013-02-12 06:49:00,